{"data":{"norad_id":66395,"epoch":"2026-09-20T22:16:32.290464Z","epoch_age_seconds":56443,"freshness":"FRESH","line1":"1 66395U 25257R   26263.92815151  .00016470  00000+0  49743-3 0  9998","line2":"2 66395  53.1599  27.4493 0001588  51.0705 309.0439 15.34404894 49588","mean_motion":15.34404894,"eccentricity":0.0001588,"inclination_deg":53.1599,"raan_deg":27.4493,"arg_perigee_deg":51.0705,"mean_anomaly_deg":309.0439,"bstar":0.00049743,"rev_number":4958,"period_min":93.847458752957,"perigee_km":461.60237112616,"apogee_km":463.77501736665,"semimajor_km":6840.8256942464,"source":"CELESTRAK","updated_at":"2026-09-21T09:00:35.888130Z"}}